Time,TemperatureF,DewpointF,PressureIn,WindDirection,WindDirectionDegrees,WindSpeedMPH,WindSpeedGustMPH,Humidity,HourlyPrecipIn,Conditions,Clouds,dailyrainin,SolarRadiationWatts/m^2,SoftwareType,DateUTC
2013-02-05 00:13:00,24.1,22.0,29.89,NNE,32,0.0,1.0,90,0.00,,,0.01,0,weatherlink.com 1.10,2013-02-05 05:13:00,
2013-02-05 00:28:00,24.1,22.0,29.89,NNE,32,1.0,2.0,90,0.00,,,0.01,0,weatherlink.com 1.10,2013-02-05 05:28:00,
2013-02-05 00:44:00,24.0,22.0,29.89,NNE,32,1.0,2.0,90,0.00,,,0.01,0,weatherlink.com 1.10,2013-02-05 05:44:00,
2013-02-05 00:59:00,24.0,22.0,29.90,NNE,27,2.0,3.0,90,0.00,,,0.01,0,weatherlink.com 1.10,2013-02-05 05:59:00,
2013-02-05 01:14:00,23.6,21.0,29.90,NNE,27,0.0,3.0,90,0.00,,,0.01,0,weatherlink.com 1.10,2013-02-05 06:14:00,
2013-02-05 01:29:00,23.4,21.0,29.90,NNE,27,0.0,2.0,90,0.00,,,0.01,0,weatherlink.com 1.10,2013-02-05 06:29:00,
2013-02-05 01:43:00,23.3,21.0,29.91,NNE,27,0.0,1.0,91,0.00,,,0.01,0,weatherlink.com 1.10,2013-02-05 06:43:00,
2013-02-05 01:58:00,23.0,21.0,29.90,NNE,27,2.0,4.0,91,0.00,,,0.01,0,weatherlink.com 1.10,2013-02-05 06:58:00,
2013-02-05 02:14:00,22.8,21.0,29.89,NNE,27,0.0,3.0,91,0.00,,,0.01,0,weatherlink.com 1.10,2013-02-05 07:14:00,
2013-02-05 02:29:00,22.6,20.0,29.90,NNE,27,1.0,2.0,91,0.00,,,0.01,0,weatherlink.com 1.10,2013-02-05 07:29:00,
2013-02-05 02:44:00,22.4,21.0,29.89,NNE,27,1.0,3.0,92,0.00,,,0.01,0,weatherlink.com 1.10,2013-02-05 07:44:00,
2013-02-05 02:59:00,22.3,20.0,29.89,NNE,27,0.0,1.0,92,0.00,,,0.01,0,weatherlink.com 1.10,2013-02-05 07:59:00,
2013-02-05 03:14:00,22.2,20.0,29.90,NNE,27,0.0,3.0,92,0.00,,,0.01,0,weatherlink.com 1.10,2013-02-05 08:14:00,
2013-02-05 03:29:00,21.9,20.0,29.90,NNE,27,1.0,2.0,92,0.00,,,0.01,0,weatherlink.com 1.10,2013-02-05 08:29:00,
2013-02-05 03:44:00,21.9,20.0,29.89,NNE,27,0.0,0.0,92,0.00,,,0.01,0,weatherlink.com 1.10,2013-02-05 08:44:00,
2013-02-05 03:59:00,21.9,20.0,29.88,NNE,27,0.0,3.0,92,0.00,,,0.01,0,weatherlink.com 1.10,2013-02-05 08:59:00,
2013-02-05 04:14:00,21.8,20.0,29.89,NNE,27,0.0,3.0,92,0.00,,,0.01,0,weatherlink.com 1.10,2013-02-05 09:14:00,
2013-02-05 04:29:00,21.7,20.0,29.89,NNE,27,0.0,2.0,92,0.00,,,0.01,0,weatherlink.com 1.10,2013-02-05 09:29:00,
2013-02-05 04:44:00,21.6,20.0,29.87,NE,41,2.0,3.0,92,0.00,,,0.01,0,weatherlink.com 1.10,2013-02-05 09:44:00,
2013-02-05 04:59:00,21.3,19.0,29.87,NE,47,1.0,3.0,92,0.00,,,0.01,0,weatherlink.com 1.10,2013-02-05 09:59:00,
2013-02-05 05:14:00,20.8,19.0,29.88,NE,47,0.0,3.0,92,0.00,,,0.01,0,weatherlink.com 1.10,2013-02-05 10:14:00,
2013-02-05 05:29:00,20.5,19.0,29.88,NE,47,0.0,2.0,92,0.00,,,0.01,0,weatherlink.com 1.10,2013-02-05 10:29:00,
2013-02-05 05:44:00,20.3,19.0,29.89,NE,47,2.0,2.0,93,0.00,,,0.00,0,weatherlink.com 1.10,2013-02-05 10:44:00,
2013-02-05 05:59:00,20.0,18.0,29.89,NE,47,0.0,2.0,93,0.00,,,0.00,0,weatherlink.com 1.10,2013-02-05 10:59:00,
2013-02-05 06:14:00,19.8,18.0,29.89,NE,47,1.0,2.0,93,0.00,,,0.00,0,weatherlink.com 1.10,2013-02-05 11:14:00,
2013-02-05 06:29:00,19.1,17.0,29.88,East,85,1.0,3.0,93,0.00,,,0.00,0,weatherlink.com 1.10,2013-02-05 11:29:00,
2013-02-05 06:44:00,18.8,17.0,29.88,ESE,108,0.0,2.0,93,0.00,,,0.00,0,weatherlink.com 1.10,2013-02-05 11:44:00,
2013-02-05 06:59:00,18.7,17.0,29.88,ESE,108,0.0,2.0,93,0.00,,,0.00,0,weatherlink.com 1.10,2013-02-05 11:59:00,
2013-02-05 07:14:00,18.6,17.0,29.89,ESE,112,0.0,3.0,93,0.00,,,0.00,0,weatherlink.com 1.10,2013-02-05 12:14:00,
2013-02-05 07:29:00,18.5,17.0,29.89,SE,137,1.0,3.0,93,0.00,,,0.00,0,weatherlink.com 1.10,2013-02-05 12:29:00,
2013-02-05 07:44:00,18.6,17.0,29.89,SSE,153,1.0,3.0,94,0.00,,,0.00,0,weatherlink.com 1.10,2013-02-05 12:44:00,
2013-02-05 07:59:00,18.9,18.0,29.89,SSE,168,1.0,4.0,94,0.00,,,0.00,12,weatherlink.com 1.10,2013-02-05 12:59:00,
2013-02-05 08:14:00,19.5,18.0,29.90,SSE,168,1.0,3.0,94,0.00,,,0.00,33,weatherlink.com 1.10,2013-02-05 13:14:00,
2013-02-05 08:29:00,20.0,19.0,29.89,South,177,3.0,3.0,94,0.00,,,0.00,35,weatherlink.com 1.10,2013-02-05 13:29:00,
2013-02-05 08:44:00,20.1,19.0,29.90,South,186,4.0,6.0,94,0.00,,,0.00,49,weatherlink.com 1.10,2013-02-05 13:44:00,
2013-02-05 08:59:00,20.5,19.0,29.90,SSW,210,2.0,5.0,94,0.00,,,0.00,63,weatherlink.com 1.10,2013-02-05 13:59:00,
2013-02-05 09:14:00,21.1,20.0,29.89,South,185,3.0,6.0,94,0.00,,,0.00,105,weatherlink.com 1.10,2013-02-05 14:14:00,
2013-02-05 09:29:00,21.6,20.0,29.89,WSW,241,2.0,6.0,94,0.00,,,0.00,121,weatherlink.com 1.10,2013-02-05 14:29:00,
2013-02-05 09:44:00,22.1,20.0,29.88,SW,218,3.0,7.0,93,0.00,,,0.00,193,weatherlink.com 1.10,2013-02-05 14:44:00,
2013-02-05 09:59:00,22.8,21.0,29.88,SW,226,5.0,7.0,93,0.00,,,0.00,244,weatherlink.com 1.10,2013-02-05 14:59:00,
2013-02-05 10:14:00,23.9,22.0,29.87,SE,138,5.0,10.0,91,0.00,,,0.00,221,weatherlink.com 1.10,2013-02-05 15:14:00,
2013-02-05 10:29:00,24.5,22.0,29.86,South,177,3.0,10.0,89,0.00,,,0.00,223,weatherlink.com 1.10,2013-02-05 15:29:00,
2013-02-05 10:45:00,25.2,22.0,29.86,SW,228,5.0,8.0,87,0.00,,,0.00,225,weatherlink.com 1.10,2013-02-05 15:45:00,
2013-02-05 11:00:00,25.9,22.0,29.84,South,173,2.0,12.0,86,0.00,,,0.00,339,weatherlink.com 1.10,2013-02-05 16:00:00,
2013-02-05 11:15:00,26.0,22.0,29.85,South,172,6.0,9.0,84,0.00,,,0.00,199,weatherlink.com 1.10,2013-02-05 16:15:00,
2013-02-05 11:30:00,27.3,23.0,29.84,South,177,5.0,10.0,82,0.00,,,0.00,543,weatherlink.com 1.10,2013-02-05 16:30:00,
2013-02-05 11:45:00,27.9,23.0,29.84,South,184,11.0,13.0,80,0.00,,,0.00,555,weatherlink.com 1.10,2013-02-05 16:45:00,
2013-02-05 12:00:00,28.0,23.0,29.83,SSW,201,5.0,12.0,80,0.00,,,0.00,461,weatherlink.com 1.10,2013-02-05 17:00:00,
2013-02-05 12:15:00,28.8,23.0,29.83,SW,215,7.0,13.0,78,0.00,,,0.00,606,weatherlink.com 1.10,2013-02-05 17:15:00,
2013-02-05 12:30:00,29.0,23.0,29.82,SW,214,7.0,12.0,78,0.00,,,0.00,424,weatherlink.com 1.10,2013-02-05 17:30:00,
2013-02-05 12:49:00,29.0,22.0,29.81,SSW,193,14.0,14.0,76,0.00,,,0.00,443,weatherlink.com 1.10,2013-02-05 17:49:00,
2013-02-05 13:00:00,29.2,23.0,29.80,SSW,193,14.0,14.0,77,0.00,,,0.00,636,weatherlink.com 1.10,2013-02-05 18:00:00,
2013-02-05 13:15:00,29.5,23.0,29.80,SSE,147,4.0,13.0,77,0.00,,,0.00,360,weatherlink.com 1.10,2013-02-05 18:15:00,
2013-02-05 13:30:00,29.6,23.0,29.79,SSW,204,2.0,17.0,77,0.00,,,0.00,338,weatherlink.com 1.10,2013-02-05 18:30:00,
2013-02-05 13:45:00,29.4,23.0,29.78,South,187,11.0,17.0,77,0.00,,,0.00,360,weatherlink.com 1.10,2013-02-05 18:45:00,
2013-02-05 14:00:00,29.8,23.0,29.78,South,169,4.0,13.0,77,0.00,,,0.00,359,weatherlink.com 1.10,2013-02-05 19:00:00,
2013-02-05 14:15:00,30.0,24.0,29.78,SSW,212,3.0,9.0,78,0.00,,,0.00,246,weatherlink.com 1.10,2013-02-05 19:15:00,
2013-02-05 14:30:00,30.1,23.0,29.78,West,260,3.0,17.0,76,0.00,,,0.00,186,weatherlink.com 1.10,2013-02-05 19:30:00,
2013-02-05 14:45:00,30.1,23.0,29.78,SW,231,6.0,15.0,76,0.00,,,0.00,171,weatherlink.com 1.10,2013-02-05 19:45:00,
2013-02-05 15:00:00,29.9,24.0,29.78,SW,233,5.0,17.0,78,0.00,,,0.00,214,weatherlink.com 1.10,2013-02-05 20:00:00,
2013-02-05 15:16:00,30.1,25.0,29.78,SSW,213,8.0,14.0,81,0.00,,,0.00,151,weatherlink.com 1.10,2013-02-05 20:16:00,
2013-02-05 15:30:00,29.8,26.0,29.78,WSW,239,5.0,13.0,84,0.00,,,0.00,107,weatherlink.com 1.10,2013-02-05 20:30:00,
2013-02-05 15:45:00,29.8,26.0,29.78,West,274,3.0,11.0,86,0.00,,,0.00,113,weatherlink.com 1.10,2013-02-05 20:45:00,
2013-02-05 16:00:00,29.6,27.0,29.80,West,273,3.0,7.0,89,0.00,,,0.00,60,weatherlink.com 1.10,2013-02-05 21:00:00,
2013-02-05 16:15:00,29.5,27.0,29.80,WSW,249,2.0,7.0,91,0.00,,,0.00,37,weatherlink.com 1.10,2013-02-05 21:15:00,
2013-02-05 16:30:00,29.5,28.0,29.80,WSW,241,6.0,6.0,92,0.00,,,0.00,54,weatherlink.com 1.10,2013-02-05 21:30:00,
2013-02-05 16:46:00,29.5,28.0,29.80,WSW,250,1.0,6.0,93,0.00,,,0.00,51,weatherlink.com 1.10,2013-02-05 21:46:00,
2013-02-05 17:00:00,30.0,29.0,29.81,WSW,252,3.0,4.0,94,0.00,,,0.00,44,weatherlink.com 1.10,2013-02-05 22:00:00,
2013-02-05 17:15:00,30.0,29.0,29.82,WNW,290,0.0,5.0,94,0.00,,,0.00,28,weatherlink.com 1.10,2013-02-05 22:15:00,
2013-02-05 17:30:00,30.2,29.0,29.82,WSW,251,3.0,6.0,94,0.00,,,0.00,11,weatherlink.com 1.10,2013-02-05 22:30:00,
2013-02-05 17:45:00,30.2,29.0,29.82,NW,316,1.0,5.0,95,0.00,,,0.00,7,weatherlink.com 1.10,2013-02-05 22:45:00,
2013-02-05 18:00:00,30.4,29.0,29.83,West,275,4.0,8.0,94,0.00,,,0.00,0,weatherlink.com 1.10,2013-02-05 23:00:00,
2013-02-05 18:15:00,30.5,29.0,29.84,West,272,4.0,11.0,94,0.00,,,0.00,0,weatherlink.com 1.10,2013-02-05 23:15:00,
2013-02-05 18:46:00,30.2,28.0,29.85,WNW,285,5.0,9.0,92,0.00,,,0.00,0,weatherlink.com 1.10,2013-02-05 23:46:00,
2013-02-05 19:00:00,30.2,28.0,29.86,WNW,293,2.0,7.0,92,0.00,,,0.00,0,weatherlink.com 1.10,2013-02-06 00:00:00,
2013-02-05 19:15:00,30.2,28.0,29.86,NW,316,2.0,8.0,92,0.00,,,0.00,0,weatherlink.com 1.10,2013-02-06 00:15:00,
2013-02-05 19:31:00,30.2,28.0,29.87,West,280,4.0,7.0,92,0.00,,,0.00,0,weatherlink.com 1.10,2013-02-06 00:31:00,
2013-02-05 19:46:00,30.1,28.0,29.88,WNW,297,3.0,9.0,91,0.00,,,0.00,0,weatherlink.com 1.10,2013-02-06 00:46:00,
2013-02-05 20:00:00,30.1,28.0,29.89,WNW,300,4.0,9.0,91,0.00,,,0.00,0,weatherlink.com 1.10,2013-02-06 01:00:00,
2013-02-05 20:15:00,30.1,28.0,29.90,NW,313,4.0,8.0,91,0.00,,,0.00,0,weatherlink.com 1.10,2013-02-06 01:15:00,
2013-02-05 20:31:00,30.1,28.0,29.90,WNW,300,4.0,10.0,91,0.00,,,0.00,0,weatherlink.com 1.10,2013-02-06 01:31:00,
2013-02-05 20:45:00,30.1,28.0,29.91,NW,316,6.0,11.0,90,0.00,,,0.00,0,weatherlink.com 1.10,2013-02-06 01:45:00,
2013-02-05 21:01:00,30.0,28.0,29.92,North,354,6.0,13.0,90,0.00,,,0.00,0,weatherlink.com 1.10,2013-02-06 02:01:00,
2013-02-05 21:16:00,29.9,27.0,29.93,NW,320,3.0,13.0,89,0.00,,,0.00,0,weatherlink.com 1.10,2013-02-06 02:16:00,
2013-02-05 21:31:00,29.9,27.0,29.93,NW,305,6.0,14.0,88,0.00,,,0.00,0,weatherlink.com 1.10,2013-02-06 02:31:00,
2013-02-05 21:46:00,29.6,27.0,29.94,WNW,296,11.0,14.0,88,0.00,,,0.00,0,weatherlink.com 1.10,2013-02-06 02:46:00,
2013-02-05 22:01:00,29.3,26.0,29.95,West,272,9.0,14.0,88,0.00,,,0.00,0,weatherlink.com 1.10,2013-02-06 03:01:00,
2013-02-05 22:16:00,29.1,26.0,29.96,WNW,286,5.0,14.0,89,0.00,,,0.00,0,weatherlink.com 1.10,2013-02-06 03:16:00,
2013-02-05 22:31:00,29.0,27.0,29.96,WNW,293,8.0,12.0,90,0.00,,,0.00,0,weatherlink.com 1.10,2013-02-06 03:31:00,
2013-02-05 22:46:00,28.9,26.0,29.97,West,274,4.0,13.0,89,0.00,,,0.00,0,weatherlink.com 1.10,2013-02-06 03:46:00,
2013-02-05 23:01:00,29.0,26.0,29.97,WNW,295,4.0,11.0,88,0.00,,,0.00,0,weatherlink.com 1.10,2013-02-06 04:01:00,
2013-02-05 23:16:00,29.0,26.0,29.98,WNW,293,4.0,11.0,87,0.00,,,0.00,0,weatherlink.com 1.10,2013-02-06 04:16:00,
2013-02-05 23:31:00,29.1,25.0,29.98,NW,313,3.0,12.0,85,0.00,,,0.00,0,weatherlink.com 1.10,2013-02-06 04:31:00,
2013-02-05 23:46:00,29.1,25.0,29.98,NW,311,5.0,11.0,85,0.00,,,0.00,0,weatherlink.com 1.10,2013-02-06 04:46:00,